1. Oktober 2022

Uhrzeit Code Wetter Temp. Sichtweite Wolkendecke Wind METAR/SPECI
02:55
V
11 °C 10 km+ 4.800 ft 180° 180° 14 kt METAR EHGG 010055Z AUTO 18014KT 140V220 9999 -SHRA FEW015 SCT043 BKN048 11/09 Q1000
02:25
V
11 °C 10 km+ - 170° 170° 12 kt METAR EHGG 010025Z AUTO 17012KT 140V220 9999 -RA FEW015CB 11/09 Q1001 RERA
01:55
V
11 °C 10 km+ - 180° 180° 11 kt METAR EHGG 302355Z AUTO 18011KT 140V230 9999 -RA FEW015CB 11/09 Q1002
01:25
V
11 °C 10 km+ - 190° 190° 11 kt METAR EHGG 302325Z AUTO 19011KT 150V220 9999 -RA FEW045 11/09 Q1003
00:55
V
12 °C 10 km+ - 200° 200° 11 kt METAR EHGG 302255Z AUTO 20011KT 170V240 9999 -RA FEW048 12/09 Q1003 REDZRA
00:25
V
13 °C 10 km+ 4.600 ft 190° 190° 12 kt METAR EHGG 302225Z AUTO 19012KT 150V230 9999 DZRA OVC046 13/08 Q1003

30. September 2022

Uhrzeit Code Wetter Temp. Sichtweite Wolkendecke Wind METAR/SPECI
23:55
V
13 °C 10 km+ - 180° 180° 12 kt METAR EHGG 302155Z AUTO 18012KT 150V220 9999 NSC 13/08 Q1003
23:25
V
13 °C 10 km+ - 180° 180° 11 kt METAR EHGG 302125Z AUTO 18011KT 150V210 9999 NSC 13/08 Q1003
22:55
V
13 °C 10 km+ - 180° 180° 13 kt METAR EHGG 302055Z AUTO 18013KT 150V220 9999 NSC 13/08 Q1003
22:25
V
13 °C 10 km+ - 180° 180° 11 kt METAR EHGG 302025Z AUTO 18011KT 150V210 9999 NSC 13/08 Q1004 NOSIG
21:55
V
12 °C 10 km+ - 170° 170° 10 kt METAR EHGG 301955Z AUTO 17010KT 140V210 9999 NSC 12/08 Q1004 NOSIG
21:25
V
12 °C 10 km+ - 170° 170° 9 kt METAR EHGG 301925Z AUTO 17009KT 140V200 9999 NSC 12/08 Q1005 NOSIG
20:55
V
12 °C 10 km+ - 170° 170° 8 kt METAR EHGG 301855Z AUTO 17008KT 140V200 9999 NSC 12/08 Q1005 NOSIG
20:25
V
13 °C 10 km+ - 170° 170° 8 kt METAR EHGG 301825Z AUTO 17008KT 140V200 9999 NSC 13/08 Q1006 NOSIG
19:55
V
13 °C 10 km+ - 170° 170° 7 kt METAR EHGG 301755Z AUTO 17007KT 140V200 9999 NSC 13/08 Q1006 NOSIG
19:25
V
14 °C 10 km+ - 180° 180° 8 kt METAR EHGG 301725Z AUTO 18008KT 130V220 9999 FEW036 14/08 Q1006 NOSIG
18:55
V
14 °C 10 km+ - 190° 190° 8 kt METAR EHGG 301655Z AUTO 19008KT 160V220 9999 NSC 14/08 Q1006 NOSIG
18:25
V
15 °C 10 km+ 4.300 ft 190° 190° 10 kt METAR EHGG 301625Z AUTO 19010KT 9999 SCT038 BKN043 15/08 Q1006 NOSIG
17:55
V
15 °C 10 km+ 3.900 ft 190° 190° 10 kt METAR EHGG 301555Z AUTO 19010KT 160V230 9999 BKN039 BKN044 15/08 Q1006 NOSIG
17:25
V
16 °C 10 km+ - 200° 200° 10 kt METAR EHGG 301525Z AUTO 20010KT 160V230 9999 FEW039 SCT043 16/08 Q1006 NOSIG
16:55
V
16 °C 10 km+ 4.600 ft 190° 190° 11 kt METAR EHGG 301455Z AUTO 19011KT 160V220 9999 SCT040 BKN046 16/08 Q1006 NOSIG
16:25
V
17 °C 10 km+ - 200° 200° 10 kt METAR EHGG 301425Z AUTO 20010KT 170V240 9999 SCT038 17/09 Q1007 NOSIG
15:55
V
16 °C 10 km+ 3.900 ft 200° 200° 10 kt METAR EHGG 301355Z AUTO 20010KT 170V240 9999 SCT034 BKN039 BKN047 16/09 Q1007 NOSIG
15:25
V
16 °C 10 km+ 3.700 ft 200° 200° 10 kt METAR EHGG 301325Z AUTO 20010KT 170V230 9999 SCT032 BKN037 BKN045 16/09 Q1007 NOSIG
14:55
V
16 °C 10 km+ 3.400 ft 190° 190° 12 kt METAR EHGG 301255Z AUTO 19012KT 160V230 9999 BKN034 BKN045 16/09 Q1007 NOSIG
14:25
V
16 °C 10 km+ - 200° 200° 12 kt METAR EHGG 301225Z AUTO 20012KT 170V230 9999 FEW035 16/08 Q1007 NOSIG
13:55
V
16 °C 10 km+ - 220° 220° 11 kt METAR EHGG 301155Z AUTO 22011KT 180V250 9999 FEW031 16/09 Q1008 NOSIG
13:25
V
16 °C 10 km+ - 210° 210° 11 kt METAR EHGG 301125Z AUTO 21011KT 170V250 9999 FEW025 16/09 Q1008 NOSIG
12:55
V
15 °C 10 km+ - 210° 210° 10 kt METAR EHGG 301055Z AUTO 21010KT 170V240 9999 FEW021 15/10 Q1008 NOSIG
12:25
V
14 °C 10 km+ - 200° 200° 8 kt METAR EHGG 301025Z AUTO 20008KT 170V240 9999 FEW012 14/11 Q1008 NOSIG
11:55
V
12 °C 10 km+ - 200° 200° 6 kt METAR EHGG 300955Z AUTO 20006KT 170V240 9999 NCD 12/11 Q1009 NOSIG
11:25
L
11 °C 5 km 100 ft 210° 210° 6 kt METAR EHGG 300925Z AUTO 21006KT 5000 OVC001 11/10 Q1008 BECMG CAVOK TEMPO 2500 BR
10:55
L
11 °C 9 km 100 ft 220° 220° 7 kt METAR EHGG 300855Z AUTO 22007KT 190V250 9000 OVC001 11/10 Q1008 BECMG 0800 FG
10:25
V
10 °C 10 km+ - 210° 210° 6 kt METAR EHGG 300825Z AUTO 21006KT 170V240 9999 NCD 10/09 Q1008 BECMG BKN003
09:55
V
9 °C 10 km+ - 210° 210° 5 kt METAR EHGG 300755Z AUTO 21005KT 9999 NCD 09/09 Q1008 BECMG BKN002
09:25
M
8 °C 7 km - 180° 180° 3 kt METAR EHGG 300725Z AUTO 18003KT 150V210 7000 NCD 08/07 Q1008 BECMG 0900 FG BKN002
08:55
I
6 °C 2,4 km - 200° 200° 4 kt METAR EHGG 300655Z AUTO 20004KT 2400 BR BKN000 06/06 Q1008 BECMG CAVOK TEMPO 0500 FG
08:25
L
3 °C 300 m - 220° 220° 4 kt METAR EHGG 300625Z AUTO 22004KT 0300 R23/0600U FG FEW000 03/03 Q1008 TEMPO 0450
07:55
L
2 °C 250 m - 190° 190° 1 kt METAR EHGG 300555Z AUTO 19001KT 0250 R23/0375N FG NCD 02/02 Q1008 TEMPO 0450
07:25
L
2 °C 300 m - 150° 150° 2 kt METAR EHGG 300525Z AUTO 15002KT 0300 R23/0375D FG VV000 02/02 Q1008 TEMPO 0450
06:55
L
2 °C 500 m - 190° 190° 3 kt METAR EHGG 300455Z AUTO 19003KT 0500 R23/0700U FG BKN000 02/02 Q1008 TEMPO 0200
06:25
L
3 °C 550 m - Var Var 2 kt METAR EHGG 300425Z AUTO VRB02KT 0550 R23/0650N FG NCD 03/02 Q1007 TEMPO 0200
05:55
L
3 °C 350 m - 170° 170° 1 kt METAR EHGG 300355Z AUTO 17001KT 0350 R23/0500N FG SCT000 03/03 Q1007
05:25
L
4 °C 350 m - Var Var 2 kt METAR EHGG 300325Z AUTO VRB02KT 0350 R23/0450D FG VV000 04/04 Q1007
04:55
L
4 °C 450 m - Var Var 2 kt METAR EHGG 300255Z AUTO VRB02KT 0450 R23/0650N FG NCD 04/04 Q1007
04:25
L
4 °C 550 m - 210° 210° 4 kt METAR EHGG 300225Z AUTO 21004KT 0550 R23/0650D FG VV000 04/04 Q1007
03:55
L
4 °C 300 m - 220° 220° 3 kt METAR EHGG 300155Z AUTO 22003KT 170V230 0300 R23/0400N FG OVC000 04/04 Q1007
03:25
L
3 °C 200 m - 170° 170° 2 kt METAR EHGG 300125Z AUTO 17002KT 0200 R23/0250D FG VV000 03/03 Q1007
02:55
L
4 °C 350 m - 170° 170° 1 kt METAR EHGG 300055Z AUTO 17001KT 0350 R23/0450D FG BKN000 04/04 Q1007
02:25
L
4 °C 550 m - 220° 220° 3 kt METAR EHGG 300025Z AUTO 22003KT 0550 R23/1100U FG FEW000/// 04/04 Q1007
01:55
L
4 °C 500 m - 230° 230° 3 kt METAR EHGG 292355Z AUTO 23003KT 0500 R23/1200U FG NCD 04/04 Q1007
01:25
L
6 °C 300 m - 340° 340° 1 kt METAR EHGG 292325Z AUTO 34001KT 0300 R23/0400U FG FEW000 06/05 Q1006
00:55
L
5 °C 550 m - Var Var 1 kt METAR EHGG 292255Z AUTO VRB01KT 0550 R23/0700D FG NSC 05/05 Q1007
00:25
L
6 °C 650 m - 230° 230° 2 kt METAR EHGG 292225Z AUTO 23002KT 0650 R23/1600D FG NSC 06/06 Q1006

29. September 2022

Uhrzeit Code Wetter Temp. Sichtweite Wolkendecke Wind METAR/SPECI
23:55
I
6 °C 3,6 km - 210° 210° 2 kt METAR EHGG 292155Z AUTO 21002KT 3600 BR FEW000 06/05 Q1006
23:25
L
6 °C 650 m - 190° 190° 1 kt METAR EHGG 292125Z AUTO 19001KT 0650 R23/1300U FG NSC 06/06 Q1006
22:55
V
7 °C 9 km - Var Var 2 kt METAR EHGG 292055Z AUTO VRB02KT 9000 R23/1400U NCD 07/07 Q1006
22:25
L
6 °C 650 m - 240° 240° 2 kt METAR EHGG 292025Z AUTO 24002KT 0650 R23/1200N FG NCD 06/06 Q1006 TEMPO 1200 BCFG
21:55
I
7 °C 2,3 km - 210° 210° 3 kt METAR EHGG 291955Z AUTO 21003KT 2300 BR NSC 07/06 Q1005 NOSIG
21:25
V
9 °C 10 km+ - 250° 250° 1 kt METAR EHGG 291925Z AUTO 25001KT 9999 NSC 09/08 Q1005 NOSIG
20:55
V
9 °C 10 km+ - Var Var 2 kt METAR EHGG 291855Z AUTO VRB02KT 9999 NSC 09/08 Q1005 NOSIG
20:25
V
10 °C 10 km+ - 240° 240° 3 kt METAR EHGG 291825Z AUTO 24003KT 9999 NSC 10/09 Q1005 NOSIG
19:55
V
10 °C 10 km+ - Var Var 1 kt METAR EHGG 291755Z AUTO VRB01KT 9999 NSC 10/09 Q1004 NOSIG
19:25
V
11 °C 10 km+ - 260° 260° 3 kt METAR EHGG 291725Z AUTO 26003KT 9999 NSC 11/08 Q1004 NOSIG
18:55
V
12 °C 10 km+ - 260° 260° 4 kt METAR EHGG 291655Z AUTO 26004KT 9999 NSC 12/09 Q1004 NOSIG
18:25
V
12 °C 10 km+ - 240° 240° 3 kt METAR EHGG 291625Z AUTO 24003KT 9999 NSC 12/10 Q1004 NOSIG
17:55
V
13 °C 10 km+ - Var Var 1 kt METAR EHGG 291555Z AUTO VRB01KT 9999 FEW039 SCT044 13/09 Q1003 NOSIG
17:25
V
12 °C 10 km+ 4.700 ft 010° 010° 4 kt METAR EHGG 291525Z AUTO 01004KT 330V040 9999 -DZ FEW000 BKN047 12/08 Q1003 REDZ NOSIG
16:55
V
15 °C 10 km+ 4.900 ft 300° 300° 6 kt METAR EHGG 291455Z AUTO 30006KT 260V340 9999 FEW028 SCT040 BKN049 15/08 Q1003 NOSIG
16:25
V
14 °C 10 km+ - 290° 290° 4 kt METAR EHGG 291425Z AUTO 29004KT 260V330 9999 NSC 14/09 Q1003 NOSIG
15:55
V
14 °C 10 km+ - 280° 280° 3 kt METAR EHGG 291355Z AUTO 28003KT 9999 SCT037 14/08 Q1002 NOSIG
15:25
V
14 °C 10 km+ - 260° 260° 6 kt METAR EHGG 291325Z AUTO 26006KT 230V290 9999 NSC 14/08 Q1002 NOSIG
14:55
V
15 °C 10 km+ - 250° 250° 5 kt METAR EHGG 291255Z AUTO 25005KT 9999 NSC 15/07 Q1002 NOSIG
14:25
V
15 °C 10 km+ 3.000 ft 270° 270° 5 kt METAR EHGG 291225Z AUTO 27005KT 220V330 9999 BKN030 BKN035 15/08 Q1002 NOSIG
13:55
V
15 °C 10 km+ - 260° 260° 4 kt METAR EHGG 291155Z AUTO 26004KT 160V320 9999 SCT028 15/07 Q1002 NOSIG
13:25
V
15 °C 10 km+ - 250° 250° 5 kt METAR EHGG 291125Z AUTO 25005KT 170V320 9999 FEW025 15/09 Q1002 NOSIG
12:55
V
14 °C 10 km+ - 260° 260° 5 kt METAR EHGG 291055Z AUTO 26005KT 190V300 9999 NSC 14/08 Q1002 NOSIG
12:25
V
14 °C 10 km+ - 220° 220° 6 kt METAR EHGG 291025Z AUTO 22006KT 180V250 9999 NSC 14/09 Q1002 NOSIG
11:55
V
13 °C 10 km+ - 230° 230° 6 kt METAR EHGG 290955Z AUTO 23006KT 200V280 9999 NSC 13/09 Q1002 NOSIG
11:25
V
12 °C 10 km+ - 220° 220° 5 kt METAR EHGG 290925Z AUTO 22005KT 190V260 9999 NSC 12/09 Q1001 NOSIG
10:55
V
11 °C 10 km+ - 200° 200° 4 kt METAR EHGG 290855Z AUTO 20004KT 160V240 9999 NSC 11/09 Q1001 NOSIG
10:25
V
10 °C 10 km+ - 210° 210° 3 kt METAR EHGG 290825Z AUTO 21003KT 180V240 9999 NSC 10/09 Q1001 NOSIG
09:55
V
8 °C 9 km - 200° 200° 4 kt METAR EHGG 290755Z AUTO 20004KT 170V320 9000 NSC 08/08 Q1001 NOSIG
09:25
M
6 °C 6 km - 200° 200° 3 kt METAR EHGG 290725Z AUTO 20003KT 180V240 6000 NSC 06/06 Q1001 BECMG CAVOK
08:55
I
4 °C 1,5 km - 170° 170° 2 kt METAR EHGG 290655Z AUTO 17002KT 1500 R23/1400U BR NSC 04/04 Q1000 BECMG 7000 NSW
08:25
L
3 °C 200 m - 190° 190° 1 kt METAR EHGG 290625Z AUTO 19001KT 0200 R23/0350U FG OVC000/// 03/03 Q1000 BECMG 3500 BR BKN002
07:55
L
2 °C 150 m - 200° 200° 2 kt METAR EHGG 290555Z AUTO 20002KT 0150 R23/0250N FG OVC000/// 02/02 Q1000 NOSIG
07:25
L
2 °C 300 m - 200° 200° 1 kt METAR EHGG 290525Z AUTO 20001KT 0300 R23/0450N FG OVC000 02/02 Q1000 NOSIG
06:55
L
2 °C 350 m - 180° 180° 2 kt METAR EHGG 290455Z AUTO 18002KT 0350 R23/0500N FG VV000 02/02 Q0999 NOSIG
06:25
L
2 °C 250 m - 180° 180° 1 kt METAR EHGG 290425Z AUTO 18001KT 0250 R23/0350N FG VV000 02/01 Q0999 NOSIG
05:55
L
3 °C 300 m - Var 000° 0 kt METAR EHGG 290355Z AUTO 00000KT 0300 R23/0400N FG VV000 03/02 Q0999
05:25
L
2 °C 250 m - 180° 180° 1 kt METAR EHGG 290325Z AUTO 18001KT 0250 R23/0300N FG VV000 02/02 Q0999
04:55
L
2 °C 300 m - 170° 170° 2 kt METAR EHGG 290255Z AUTO 17002KT 0300 R23/0400N FG FEW000/// 02/02 Q0999
04:25
L
1 °C 300 m - 240° 240° 2 kt METAR EHGG 290225Z AUTO 24002KT 0300 R23/0400N FG VV000 01/01 Q0999
03:55
L
3 °C 350 m - 190° 190° 2 kt METAR EHGG 290155Z AUTO 19002KT 0350 R23/0550U FG BKN000/// 03/02 Q0999
03:25
L
2 °C 400 m - 190° 190° 1 kt METAR EHGG 290125Z AUTO 19001KT 0400 R23/0400N FG FEW000/// 02/02 Q0999
02:55
L
2 °C 450 m - 190° 190° 2 kt METAR EHGG 290055Z AUTO 19002KT 0450 R23/0400N FG NCD 02/02 Q0999
02:25
L
3 °C 450 m - 210° 210° 2 kt METAR EHGG 290025Z AUTO 21002KT 0450 R23/0650N FG NCD 03/03 Q0999
01:55
L
3 °C 450 m - 190° 190° 2 kt METAR EHGG 282355Z AUTO 19002KT 0450 R23/0800U FG NCD 03/03 Q0999
01:25
L
2 °C 650 m - 190° 190° 3 kt METAR EHGG 282325Z AUTO 19003KT 0650 R23/1100U FG NCD 02/01 Q0999
00:55
V
3 °C 10 km+ - 180° 180° 1 kt METAR EHGG 282255Z AUTO 18001KT 9999 NCD 03/03 Q0999
00:25
L
3 °C 350 m - Var 000° 0 kt METAR EHGG 282225Z AUTO 00000KT 0350 R23/0450N FG NSC 03/03 Q0998

28. September 2022

Uhrzeit Code Wetter Temp. Sichtweite Wolkendecke Wind METAR/SPECI
23:55
I
4 °C 1,5 km - 180° 180° 1 kt METAR EHGG 282155Z AUTO 18001KT 1500 FG NCD 04/04 Q0998
23:25
I
3 °C 3,2 km - 180° 180° 2 kt METAR EHGG 282125Z AUTO 18002KT 3200 NSC 03/03 Q0998
22:55
L
4 °C 500 m - 170° 170° 1 kt METAR EHGG 282055Z AUTO 17001KT 0500 R23/0700N FG NCD 04/04 Q0998
22:25
L
4 °C 400 m - 170° 170° 1 kt METAR EHGG 282025Z AUTO 17001KT 0400 R23/0375D FG NCD 04/04 Q0998 NOSIG
21:55
L
5 °C 900 m - 170° 170° 1 kt METAR EHGG 281955Z AUTO 17001KT 0900 R23/1000U FG NSC 05/04 Q0998 NOSIG
21:25
L
5 °C 300 m - Var 000° 0 kt METAR EHGG 281925Z AUTO 00000KT 0300 R23/0375N FG NSC 05/05 Q0998 TEMPO 1200 MIFG
20:55
L
5 °C 350 m - 180° 180° 1 kt METAR EHGG 281855Z AUTO 18001KT 0350 R23/0450D FG NCD 05/05 Q0997 TEMPO 1200 MIFG
20:25
V
7 °C 10 km+ - 170° 170° 2 kt METAR EHGG 281825Z AUTO 17002KT 9999 FEW000 07/07 Q0997 BECMG 5000 MIFG
19:55
V
7 °C 10 km+ - 220° 220° 1 kt METAR EHGG 281755Z AUTO 22001KT 9999 NSC 07/07 Q0997 BECMG 5000 MIFG
19:25
V
7 °C 10 km+ - 210° 210° 2 kt METAR EHGG 281725Z AUTO 21002KT 9999 NSC 07/06 Q0997 NOSIG
18:55
V
9 °C 10 km+ - 230° 230° 1 kt METAR EHGG 281655Z AUTO 23001KT 9999 NCD 09/07 Q0997 NOSIG
18:25
V
10 °C 10 km+ - 180° 180° 3 kt METAR EHGG 281625Z AUTO 18003KT 9999 NCD 10/07 Q0997 NOSIG
17:55
V
11 °C 10 km+ 3.600 ft 200° 200° 6 kt METAR EHGG 281555Z AUTO 20006KT 9999 FEW015CB OVC036 11/07 Q0997 BECMG BKN040
17:25
V
12 °C 10 km+ - 200° 200° 4 kt METAR EHGG 281525Z AUTO 20004KT 160V240 9999 FEW015CB 12/08 Q0996 TEMPO 7000 -SHRA FEW020CB
16:55
V
12 °C 10 km+ - Var Var 1 kt METAR EHGG 281455Z AUTO VRB01KT 9999 NSC 12/08 Q0996 TEMPO 7000 -SHRA FEW020CB
Ältere Daten

Wir und Dritte verfolgen dein Internetverhalten auf unserer Website mit Cookies. Wenn du fortfährst, gehen wir davon aus, dass du mit unserer Cookie-Richtlinie einverstanden bist. Mehr erfahren